Location: Diguira
(13.1838°N, 4.9109°W)
Time: 17:31:01
(UTC+00:00)

ATLAS 2AS CENTAUR R/B - Pass Details

Date: 18 September 2020
Orbit: 939 x 1273 km, 63.7° (Epoch: 19 October)

Event Time Altitude Azimuth Distance (km) Brightness Sun altitude
Rises 20:51:05 0° 221° (SW) 4,068 6.1 -37.7°
Reaches altitude 10° 20:53:55 10° 227° (SW) 3,145 5.4 -38.4°
Maximum altitude 21:01:04 43° 297° (WNW) 1,690 3.9 -40.1°
Enters shadow 21:04:47 27° 348° (NNW) 2,202 4.4 -41.0°
